Time,TemperatureF,DewpointF,PressureIn,WindDirection,WindDirectionDegrees,WindSpeedMPH,WindSpeedGustMPH,Humidity,HourlyPrecipIn,Conditions,Clouds,dailyrainin,SoftwareType,DateUTC
2013-03-26 00:00:00,34.5,24.3,29.93,WSW,240,3.9,7.8,66,0.00,,FEW065,0.02,VWS V14.01,2013-03-26 04:00:00,
2013-03-26 00:01:00,34.5,24.3,29.93,WSW,240,2.6,7.8,66,0.00,,CLR,0.02,VWS V14.01,2013-03-26 04:01:00,
2013-03-26 00:03:00,34.4,24.2,29.93,SW,229,7.8,13.0,66,0.00,,CLR,0.00,VWS V14.01,2013-03-26 04:03:00,
2013-03-26 00:08:00,34.3,24.5,29.94,SW,229,2.6,5.2,67,0.00,,CLR,0.00,VWS V14.01,2013-03-26 04:08:00,
2013-03-26 00:11:00,34.3,24.5,29.94,WSW,251,3.9,6.5,67,0.00,,CLR,0.00,VWS V14.01,2013-03-26 04:11:00,
2013-03-26 00:17:00,34.2,24.4,29.93,West,272,3.9,11.7,67,0.00,,CLR,0.00,VWS V14.01,2013-03-26 04:17:00,
2013-03-26 00:22:00,34.2,24.4,29.93,West,259,9.1,9.1,67,0.00,,CLR,0.00,VWS V14.01,2013-03-26 04:22:00,
2013-03-26 00:27:00,34.1,24.3,29.94,SW,229,5.2,9.1,67,0.00,,CLR,0.00,VWS V14.01,2013-03-26 04:27:00,
2013-03-26 00:32:00,34.2,24.0,29.94,SW,226,6.5,9.1,66,0.00,,CLR,0.00,VWS V14.01,2013-03-26 04:32:00,
2013-03-26 00:37:00,34.1,24.3,29.93,WSW,257,3.9,13.0,67,0.00,,CLR,0.00,VWS V14.01,2013-03-26 04:37:00,
2013-03-26 00:42:00,33.9,24.1,29.93,West,261,2.6,10.4,67,0.00,,CLR,0.00,VWS V14.01,2013-03-26 04:42:00,
2013-03-26 00:47:00,33.8,24.4,29.94,WSW,258,7.8,13.0,68,0.00,,CLR,0.00,VWS V14.01,2013-03-26 04:47:00,
2013-03-26 00:52:00,33.7,24.3,29.94,WSW,252,9.1,10.4,68,0.00,,CLR,0.00,VWS V14.01,2013-03-26 04:52:00,
2013-03-26 00:58:00,33.7,24.3,29.94,West,281,7.8,13.0,68,0.00,,CLR,0.00,VWS V14.01,2013-03-26 04:58:00,
2013-03-26 01:03:00,33.6,24.5,29.94,NW,304,6.5,11.7,69,0.00,,BKN060,0.00,VWS V14.01,2013-03-26 05:03:00,
2013-03-26 01:08:00,33.5,24.4,29.94,WSW,248,5.2,9.1,69,0.00,,BKN060,0.00,VWS V14.01,2013-03-26 05:08:00,
2013-03-26 01:13:00,33.5,24.4,29.95,WSW,244,5.2,14.3,69,0.00,,BKN060,0.00,VWS V14.01,2013-03-26 05:13:00,
2013-03-26 01:18:00,33.4,24.3,29.95,West,271,9.1,10.4,69,0.00,,BKN060,0.00,VWS V14.01,2013-03-26 05:18:00,
2013-03-26 01:23:00,33.3,24.2,29.95,SW,225,5.2,11.7,69,0.00,,BKN060,0.00,VWS V14.01,2013-03-26 05:23:00,
2013-03-26 01:28:00,33.1,24.0,29.95,SSW,211,3.9,11.7,69,0.00,,BKN060,0.00,VWS V14.01,2013-03-26 05:28:00,
2013-03-26 01:33:00,33.2,24.5,29.95,SW,225,6.5,11.7,70,0.00,,BKN060,0.00,VWS V14.01,2013-03-26 05:33:00,
2013-03-26 01:38:00,33.3,24.2,29.94,SW,234,3.9,13.0,69,0.00,,BKN060,0.00,VWS V14.01,2013-03-26 05:38:00,
2013-03-26 01:43:00,33.2,24.5,29.95,West,263,5.2,13.0,70,0.00,,BKN060,0.00,VWS V14.01,2013-03-26 05:43:00,
2013-03-26 01:48:00,33.0,24.3,29.95,SW,223,7.8,10.4,70,0.00,,BKN060,0.00,VWS V14.01,2013-03-26 05:48:00,
2013-03-26 01:53:00,32.9,24.2,29.95,SW,235,6.5,11.7,70,0.00,,BKN060,0.00,VWS V14.01,2013-03-26 05:53:00,
2013-03-26 01:59:00,32.8,24.5,29.94,WSW,257,3.9,7.8,71,0.00,,BKN060,0.00,VWS V14.01,2013-03-26 05:59:00,
2013-03-26 02:04:00,32.7,24.4,29.94,WSW,238,3.9,9.1,71,0.00,,CLR,0.00,VWS V14.01,2013-03-26 06:04:00,
2013-03-26 02:09:00,32.6,24.2,29.94,West,267,3.9,10.4,71,0.00,,CLR,0.00,VWS V14.01,2013-03-26 06:09:00,
2013-03-26 02:14:00,32.5,24.2,29.94,West,266,9.1,15.6,71,0.00,,CLR,0.00,VWS V14.01,2013-03-26 06:14:00,
2013-03-26 02:19:00,32.4,24.4,29.94,SW,223,6.5,10.4,72,0.00,,CLR,0.00,VWS V14.01,2013-03-26 06:19:00,
2013-03-26 02:24:00,32.5,24.5,29.94,SW,220,5.2,9.1,72,0.00,,CLR,0.00,VWS V14.01,2013-03-26 06:24:00,
2013-03-26 02:29:00,32.4,24.4,29.94,SW,229,7.8,11.7,72,0.00,,CLR,0.00,VWS V14.01,2013-03-26 06:29:00,
2013-03-26 02:34:00,32.3,24.3,29.94,SSW,204,6.5,11.7,72,0.00,,CLR,0.00,VWS V14.01,2013-03-26 06:34:00,
2013-03-26 02:39:00,32.2,24.5,29.94,WSW,242,5.2,11.7,73,0.00,,CLR,0.00,VWS V14.01,2013-03-26 06:39:00,
2013-03-26 02:44:00,32.1,24.4,29.94,West,267,10.4,11.7,73,0.00,,CLR,0.00,VWS V14.01,2013-03-26 06:44:00,
2013-03-26 02:49:00,32.0,24.3,29.94,WSW,248,9.1,11.7,73,0.00,,CLR,0.00,VWS V14.01,2013-03-26 06:49:00,
2013-03-26 02:54:00,32.0,24.3,29.94,WNW,282,2.6,10.4,73,0.00,,CLR,0.00,VWS V14.01,2013-03-26 06:54:00,
2013-03-26 03:00:00,31.9,24.6,29.94,WSW,238,3.9,9.1,74,0.00,,CLR,0.00,VWS V14.01,2013-03-26 07:00:00,
2013-03-26 03:05:00,31.9,24.6,29.94,WSW,251,3.9,7.8,74,0.00,,CLR,0.00,VWS V14.01,2013-03-26 07:05:00,
2013-03-26 03:10:00,31.9,24.6,29.94,West,280,9.1,9.1,74,0.00,,CLR,0.00,VWS V14.01,2013-03-26 07:10:00,
2013-03-26 03:15:00,31.8,24.5,29.94,SW,219,0.0,7.8,74,0.00,,CLR,0.00,VWS V14.01,2013-03-26 07:15:00,
2013-03-26 03:20:00,31.7,24.7,29.94,SW,219,3.9,10.4,75,0.00,,CLR,0.00,VWS V14.01,2013-03-26 07:20:00,
2013-03-26 03:25:00,31.7,24.7,29.94,WSW,255,5.2,9.1,75,0.00,,CLR,0.00,VWS V14.01,2013-03-26 07:25:00,
2013-03-26 03:30:00,31.7,24.7,29.94,WSW,240,5.2,9.1,75,0.00,,CLR,0.00,VWS V14.01,2013-03-26 07:30:00,
2013-03-26 03:35:00,31.6,24.6,29.94,SW,226,6.5,10.4,75,0.00,,CLR,0.00,VWS V14.01,2013-03-26 07:35:00,
2013-03-26 03:40:00,31.6,24.6,29.94,West,262,3.9,7.8,75,0.00,,CLR,0.00,VWS V14.01,2013-03-26 07:40:00,
2013-03-26 03:46:00,31.6,24.6,29.94,SW,221,3.9,6.5,75,0.00,,CLR,0.00,VWS V14.01,2013-03-26 07:46:00,
2013-03-26 03:51:00,31.7,24.7,29.94,West,261,3.9,10.4,75,0.00,,CLR,0.00,VWS V14.01,2013-03-26 07:51:00,
2013-03-26 03:57:00,31.8,24.5,29.94,SW,230,5.2,10.4,74,0.00,,CLR,0.00,VWS V14.01,2013-03-26 07:57:00,
2013-03-26 04:02:00,31.8,24.5,29.94,SW,223,1.3,5.2,74,0.00,,CLR,0.00,VWS V14.01,2013-03-26 08:02:00,
2013-03-26 04:07:00,31.7,24.7,29.94,SW,236,2.6,3.9,75,0.00,,CLR,0.00,VWS V14.01,2013-03-26 08:07:00,
2013-03-26 04:12:00,31.7,24.7,29.94,WSW,241,5.2,9.1,75,0.00,,CLR,0.00,VWS V14.01,2013-03-26 08:12:00,
2013-03-26 04:17:00,31.6,24.6,29.94,WNW,282,2.6,3.9,75,0.00,,CLR,0.00,VWS V14.01,2013-03-26 08:17:00,
2013-03-26 04:22:00,31.7,24.7,29.93,SW,235,2.6,3.9,75,0.00,,CLR,0.00,VWS V14.01,2013-03-26 08:22:00,
2013-03-26 04:27:00,31.7,24.4,29.93,West,272,3.9,5.2,74,0.00,,CLR,0.00,VWS V14.01,2013-03-26 08:27:00,
2013-03-26 04:33:00,31.7,24.4,29.93,SW,227,5.2,5.2,74,0.00,,CLR,0.00,VWS V14.01,2013-03-26 08:33:00,
2013-03-26 04:38:00,31.8,24.5,29.93,West,279,3.9,9.1,74,0.00,,CLR,0.00,VWS V14.01,2013-03-26 08:38:00,
2013-03-26 04:43:00,31.8,24.5,29.93,NW,306,3.9,7.8,74,0.00,,CLR,0.00,VWS V14.01,2013-03-26 08:43:00,
2013-03-26 04:48:00,31.8,24.5,29.93,WSW,249,5.2,5.2,74,0.00,,CLR,0.00,VWS V14.01,2013-03-26 08:48:00,
2013-03-26 04:53:00,31.7,24.0,29.93,WSW,257,0.0,5.2,73,0.00,,CLR,0.00,VWS V14.01,2013-03-26 08:53:00,
2013-03-26 04:58:00,31.6,24.3,29.93,WSW,248,0.0,2.6,74,0.00,,CLR,0.00,VWS V14.01,2013-03-26 08:58:00,
2013-03-26 05:03:00,31.6,24.3,29.93,WSW,248,0.0,2.6,74,0.00,,CLR,0.00,VWS V14.01,2013-03-26 09:03:00,
2013-03-26 05:08:00,31.5,24.2,29.93,West,259,2.6,3.9,74,0.00,,CLR,0.00,VWS V14.01,2013-03-26 09:08:00,
2013-03-26 05:14:00,31.5,24.2,29.93,West,270,0.0,2.6,74,0.00,,CLR,0.00,VWS V14.01,2013-03-26 09:14:00,
2013-03-26 05:19:00,31.3,24.0,29.93,West,270,1.3,2.6,74,0.00,,CLR,0.00,VWS V14.01,2013-03-26 09:19:00,
2013-03-26 05:24:00,31.1,24.1,29.93,West,270,1.3,1.3,75,0.00,,CLR,0.00,VWS V14.01,2013-03-26 09:24:00,
2013-03-26 05:29:00,31.1,24.1,29.93,WSW,257,0.0,2.6,75,0.00,,CLR,0.00,VWS V14.01,2013-03-26 09:29:00,
2013-03-26 05:34:00,30.8,24.1,29.93,WSW,257,1.3,2.6,76,0.00,,CLR,0.00,VWS V14.01,2013-03-26 09:34:00,
2013-03-26 05:39:00,30.5,24.2,29.94,WSW,257,0.0,2.6,77,0.00,,CLR,0.00,VWS V14.01,2013-03-26 09:39:00,
2013-03-26 05:44:00,30.2,23.9,29.94,WSW,257,1.3,3.9,77,0.00,,CLR,0.00,VWS V14.01,2013-03-26 09:44:00,
2013-03-26 05:49:00,30.3,24.0,29.94,WSW,257,0.0,2.6,77,0.00,,CLR,0.00,VWS V14.01,2013-03-26 09:49:00,
2013-03-26 05:54:00,30.3,24.0,29.94,WSW,257,2.6,2.6,77,0.00,,CLR,0.00,VWS V14.01,2013-03-26 09:54:00,
2013-03-26 06:00:00,30.3,24.0,29.93,WSW,257,0.0,1.3,77,0.00,,CLR,0.00,VWS V14.01,2013-03-26 10:00:00,
2013-03-26 06:05:00,30.1,23.8,29.94,WSW,257,0.0,0.0,77,0.00,,CLR,0.00,VWS V14.01,2013-03-26 10:05:00,
2013-03-26 06:10:00,29.8,23.8,29.94,WSW,257,2.6,2.6,78,0.00,,CLR,0.00,VWS V14.01,2013-03-26 10:10:00,
2013-03-26 06:15:00,29.5,23.8,29.94,WSW,257,0.0,1.3,79,0.00,,CLR,0.00,VWS V14.01,2013-03-26 10:15:00,
2013-03-26 06:20:00,29.4,23.7,29.94,WSW,257,0.0,0.0,79,0.00,,CLR,0.00,VWS V14.01,2013-03-26 10:20:00,
2013-03-26 06:25:00,29.2,23.5,29.94,WSW,257,0.0,1.3,79,0.00,,CLR,0.00,VWS V14.01,2013-03-26 10:25:00,
2013-03-26 06:30:00,28.7,23.6,29.94,WSW,257,0.0,0.0,81,0.00,,CLR,0.00,VWS V14.01,2013-03-26 10:30:00,
2013-03-26 06:35:00,28.4,23.3,29.94,WSW,257,0.0,0.0,81,0.00,,CLR,0.00,VWS V14.01,2013-03-26 10:35:00,
2013-03-26 06:40:00,28.2,23.4,29.95,WSW,257,0.0,1.3,82,0.00,,CLR,0.00,VWS V14.01,2013-03-26 10:40:00,
2013-03-26 06:45:00,27.8,23.3,29.95,WSW,257,0.0,1.3,83,0.00,,CLR,0.00,VWS V14.01,2013-03-26 10:45:00,
2013-03-26 06:50:00,27.8,23.3,29.95,WSW,257,0.0,1.3,83,0.00,,CLR,0.00,VWS V14.01,2013-03-26 10:50:00,
2013-03-26 06:55:00,27.8,23.3,29.94,WSW,257,1.3,2.6,83,0.00,,CLR,0.00,VWS V14.01,2013-03-26 10:55:00,
2013-03-26 07:00:00,27.9,23.4,29.95,WSW,257,0.0,1.3,83,0.00,,CLR,0.00,VWS V14.01,2013-03-26 11:00:00,
2013-03-26 07:05:00,28.1,23.6,29.95,WSW,257,0.0,1.3,83,0.00,,CLR,0.00,VWS V14.01,2013-03-26 11:05:00,
2013-03-26 07:10:00,28.0,23.5,29.95,WSW,257,1.3,2.6,83,0.00,,CLR,0.00,VWS V14.01,2013-03-26 11:10:00,
2013-03-26 07:15:00,27.9,23.4,29.95,WSW,257,1.3,1.3,83,0.00,,CLR,0.00,VWS V14.01,2013-03-26 11:15:00,
2013-03-26 07:21:00,27.9,23.4,29.95,WSW,257,0.0,0.0,83,0.00,,CLR,0.00,VWS V14.01,2013-03-26 11:21:00,
2013-03-26 07:27:00,27.5,23.3,29.96,WSW,257,0.0,1.3,84,0.00,,CLR,0.00,VWS V14.01,2013-03-26 11:27:00,
2013-03-26 07:32:00,27.4,23.2,29.96,WSW,257,0.0,1.3,84,0.00,,CLR,0.00,VWS V14.01,2013-03-26 11:32:00,
2013-03-26 07:37:00,27.7,23.5,29.96,WSW,257,0.0,0.0,84,0.00,,CLR,0.00,VWS V14.01,2013-03-26 11:37:00,
2013-03-26 07:42:00,27.9,23.7,29.97,WSW,257,0.0,0.0,84,0.00,,CLR,0.00,VWS V14.01,2013-03-26 11:42:00,
2013-03-26 07:47:00,28.0,23.8,29.97,WSW,257,0.0,0.0,84,0.00,,CLR,0.00,VWS V14.01,2013-03-26 11:47:00,
2013-03-26 07:52:00,28.1,23.9,29.97,WSW,257,0.0,1.3,84,0.00,,CLR,0.00,VWS V14.01,2013-03-26 11:52:00,
2013-03-26 07:57:00,28.6,24.4,29.97,WSW,257,0.0,1.3,84,0.00,,CLR,0.00,VWS V14.01,2013-03-26 11:57:00,
2013-03-26 08:02:00,28.8,24.6,29.97,WSW,257,0.0,1.3,84,0.00,,CLR,0.00,VWS V14.01,2013-03-26 12:02:00,
2013-03-26 08:08:00,29.1,24.6,29.98,WSW,257,0.0,1.3,83,0.00,,CLR,0.00,VWS V14.01,2013-03-26 12:08:00,
2013-03-26 08:13:00,29.9,24.8,29.98,WSW,257,1.3,5.2,81,0.00,,CLR,0.00,VWS V14.01,2013-03-26 12:13:00,
2013-03-26 08:18:00,31.0,25.3,29.98,WSW,257,0.0,2.6,79,0.00,,CLR,0.00,VWS V14.01,2013-03-26 12:18:00,
2013-03-26 08:23:00,31.9,25.5,29.98,WSW,257,3.9,5.2,77,0.00,,CLR,0.00,VWS V14.01,2013-03-26 12:23:00,
2013-03-26 08:28:00,32.7,25.7,29.98,WSW,241,2.6,3.9,75,0.00,,CLR,0.00,VWS V14.01,2013-03-26 12:28:00,
2013-03-26 08:33:00,33.2,25.8,29.98,SSW,213,1.3,6.5,74,0.00,,CLR,0.00,VWS V14.01,2013-03-26 12:33:00,
2013-03-26 08:38:00,33.7,25.6,29.98,WSW,241,2.6,6.5,72,0.00,,CLR,0.00,VWS V14.01,2013-03-26 12:38:00,
2013-03-26 08:43:00,34.3,25.5,29.99,WSW,242,3.9,5.2,70,0.00,,CLR,0.00,VWS V14.01,2013-03-26 12:43:00,
2013-03-26 08:48:00,34.8,26.0,29.99,South,189,2.6,2.6,70,0.00,,CLR,0.00,VWS V14.01,2013-03-26 12:48:00,
2013-03-26 08:53:00,35.3,26.2,29.99,South,189,3.9,3.9,69,0.00,,CLR,0.00,VWS V14.01,2013-03-26 12:53:00,
2013-03-26 08:58:00,35.6,26.5,29.99,South,189,1.3,2.6,69,0.00,,CLR,0.00,VWS V14.01,2013-03-26 12:58:00,
2013-03-26 09:03:00,36.2,27.0,29.99,South,189,2.6,2.6,69,0.00,,CLR,0.00,VWS V14.01,2013-03-26 13:03:00,
2013-03-26 09:09:00,37.0,26.0,30.00,South,189,1.3,5.2,64,0.00,,CLR,0.00,VWS V14.01,2013-03-26 13:09:00,
2013-03-26 09:14:00,37.4,27.1,30.00,South,189,2.6,5.2,66,0.00,,CLR,0.00,VWS V14.01,2013-03-26 13:14:00,
2013-03-26 09:19:00,37.8,27.1,30.00,South,189,1.3,2.6,65,0.00,,CLR,0.00,VWS V14.01,2013-03-26 13:19:00,
2013-03-26 09:24:00,38.7,27.2,30.00,SE,134,1.3,6.5,63,0.00,,CLR,0.00,VWS V14.01,2013-03-26 13:24:00,
2013-03-26 09:29:00,38.8,27.3,30.00,SE,140,0.0,3.9,63,0.00,,CLR,0.00,VWS V14.01,2013-03-26 13:29:00,
2013-03-26 09:34:00,39.4,27.1,30.01,NE,46,2.6,5.2,61,0.00,,CLR,0.00,VWS V14.01,2013-03-26 13:34:00,
2013-03-26 09:39:00,39.9,26.3,30.01,NNE,24,0.0,3.9,58,0.00,,CLR,0.00,VWS V14.01,2013-03-26 13:39:00,
2013-03-26 09:44:00,40.5,26.9,30.01,WSW,244,0.0,2.6,58,0.00,,CLR,0.00,VWS V14.01,2013-03-26 13:44:00,
2013-03-26 09:49:00,40.8,25.5,30.01,NW,324,1.3,7.8,54,0.00,,CLR,0.00,VWS V14.01,2013-03-26 13:49:00,
2013-03-26 09:54:00,41.4,26.9,30.01,SSW,213,0.0,3.9,56,0.00,,CLR,0.00,VWS V14.01,2013-03-26 13:54:00,
2013-03-26 09:59:00,41.5,26.1,30.01,SW,231,0.0,5.2,54,0.00,,CLR,0.00,VWS V14.01,2013-03-26 13:59:00,
2013-03-26 10:04:00,41.7,25.9,30.01,WNW,302,2.6,6.5,53,0.00,,CLR,0.00,VWS V14.01,2013-03-26 14:04:00,
2013-03-26 10:09:00,41.1,24.8,30.01,WSW,241,2.6,11.7,52,0.00,,CLR,0.00,VWS V14.01,2013-03-26 14:09:00,
2013-03-26 10:14:00,41.3,25.5,30.01,NE,53,1.3,7.8,53,0.00,,CLR,0.00,VWS V14.01,2013-03-26 14:14:00,
2013-03-26 10:19:00,41.7,25.4,30.02,NW,326,5.2,11.7,52,0.00,,CLR,0.00,VWS V14.01,2013-03-26 14:19:00,
2013-03-26 10:24:00,41.5,25.2,30.02,NNE,24,3.9,13.0,52,0.00,,CLR,0.00,VWS V14.01,2013-03-26 14:24:00,
2013-03-26 10:30:00,42.2,26.8,30.02,East,101,9.1,10.4,54,0.00,,CLR,0.00,VWS V14.01,2013-03-26 14:30:00,
2013-03-26 10:35:00,42.7,25.9,30.02,WNW,300,3.9,10.4,51,0.00,,CLR,0.00,VWS V14.01,2013-03-26 14:35:00,
2013-03-26 10:40:00,43.0,27.0,30.02,NNW,327,1.3,3.9,53,0.00,,CLR,0.00,VWS V14.01,2013-03-26 14:40:00,
2013-03-26 10:45:00,43.3,25.4,30.02,NE,55,3.9,9.1,49,0.00,,CLR,0.00,VWS V14.01,2013-03-26 14:45:00,
2013-03-26 10:50:00,43.8,26.9,30.02,ENE,62,3.9,6.5,51,0.00,,CLR,0.00,VWS V14.01,2013-03-26 14:50:00,
2013-03-26 10:55:00,45.2,26.7,30.02,SE,146,3.9,9.1,48,0.00,,CLR,0.00,VWS V14.01,2013-03-26 14:55:00,
2013-03-26 11:00:00,45.6,26.5,30.02,North,5,13.0,13.0,47,0.00,,CLR,0.00,VWS V14.01,2013-03-26 15:00:00,
2013-03-26 11:05:00,45.4,25.9,30.03,NE,38,6.5,10.4,46,0.00,,SCT048,0.00,VWS V14.01,2013-03-26 15:05:00,
2013-03-26 11:10:00,45.5,25.9,30.03,ENE,74,9.1,14.3,46,0.00,,SCT048,0.00,VWS V14.01,2013-03-26 15:10:00,
2013-03-26 11:15:00,45.5,25.9,30.03,WNW,290,5.2,10.4,46,0.00,,SCT048,0.00,VWS V14.01,2013-03-26 15:15:00,
2013-03-26 11:20:00,44.7,25.2,30.03,West,279,5.2,6.5,46,0.00,,SCT048,0.00,VWS V14.01,2013-03-26 15:20:00,
2013-03-26 11:25:00,43.8,24.4,30.03,South,180,1.3,15.6,46,0.00,,SCT048,0.00,VWS V14.01,2013-03-26 15:25:00,
2013-03-26 11:30:00,43.6,24.7,30.04,WNW,299,5.2,14.3,47,0.00,,SCT048,0.00,VWS V14.01,2013-03-26 15:30:00,
2013-03-26 11:35:00,43.6,24.7,30.04,WNW,294,1.3,10.4,47,0.00,,SCT048,0.00,VWS V14.01,2013-03-26 15:35:00,
2013-03-26 11:40:00,43.8,25.9,30.04,NW,321,3.9,7.8,49,0.00,,SCT048,0.00,VWS V14.01,2013-03-26 15:40:00,
2013-03-26 11:45:00,44.0,25.1,30.04,ENE,57,3.9,6.5,47,0.00,,SCT048,0.00,VWS V14.01,2013-03-26 15:45:00,
2013-03-26 11:50:00,44.5,27.0,30.04,SE,130,6.5,11.7,50,0.00,,SCT048,0.00,VWS V14.01,2013-03-26 15:50:00,
2013-03-26 11:55:00,45.6,26.5,30.04,NW,309,9.1,14.3,47,0.00,,SCT048,0.00,VWS V14.01,2013-03-26 15:55:00,
2013-03-26 12:00:00,45.9,26.3,30.04,WNW,290,9.1,13.0,46,0.00,,BKN050,0.00,VWS V14.01,2013-03-26 16:00:00,
2013-03-26 12:05:00,45.2,25.1,30.04,WSW,241,7.8,14.3,45,0.00,,BKN050,0.00,VWS V14.01,2013-03-26 16:05:00,
2013-03-26 12:10:00,44.1,24.7,30.04,West,270,7.8,14.3,46,0.00,,BKN050,0.00,VWS V14.01,2013-03-26 16:10:00,
2013-03-26 12:15:00,43.6,24.7,30.04,West,269,3.9,16.9,47,0.00,,BKN050,0.00,VWS V14.01,2013-03-26 16:15:00,
2013-03-26 12:21:00,43.5,24.6,30.05,WSW,248,1.3,7.8,47,0.00,,BKN050,0.00,VWS V14.01,2013-03-26 16:21:00,
2013-03-26 12:26:00,43.7,25.8,30.05,WNW,300,5.2,13.0,49,0.00,,BKN050,0.00,VWS V14.01,2013-03-26 16:26:00,
2013-03-26 12:31:00,44.7,25.7,30.04,SSW,211,6.5,10.4,47,0.00,,BKN050,0.00,VWS V14.01,2013-03-26 16:31:00,
2013-03-26 12:36:00,45.3,26.8,30.05,NE,34,11.7,11.7,48,0.00,,BKN050,0.00,VWS V14.01,2013-03-26 16:36:00,
2013-03-26 12:41:00,45.5,25.4,30.05,WNW,286,11.7,11.7,45,0.00,,BKN050,0.00,VWS V14.01,2013-03-26 16:41:00,
2013-03-26 12:46:00,45.4,26.4,30.05,NE,53,7.8,7.8,47,0.00,,BKN050,0.00,VWS V14.01,2013-03-26 16:46:00,
2013-03-26 12:51:00,45.9,26.8,30.05,SE,130,2.6,10.4,47,0.00,,BKN050,0.00,VWS V14.01,2013-03-26 16:51:00,
2013-03-26 12:56:00,46.4,26.8,30.05,NNW,335,3.9,13.0,46,0.00,,BKN050,0.00,VWS V14.01,2013-03-26 16:56:00,
2013-03-26 13:01:00,46.0,25.9,30.05,NNE,14,6.5,14.3,45,0.00,,OVC110,0.00,VWS V14.01,2013-03-26 17:01:00,
2013-03-26 13:06:00,46.7,26.5,30.05,WNW,290,2.6,10.4,45,0.00,,OVC110,0.00,VWS V14.01,2013-03-26 17:06:00,
2013-03-26 13:11:00,46.4,26.8,30.05,NNE,28,6.5,14.3,46,0.00,,OVC110,0.00,VWS V14.01,2013-03-26 17:11:00,
2013-03-26 13:17:00,46.7,26.5,30.05,West,277,7.8,7.8,45,0.00,,OVC110,0.00,VWS V14.01,2013-03-26 17:17:00,
2013-03-26 13:23:00,46.3,26.1,30.05,NE,38,2.6,11.7,45,0.00,,OVC110,0.00,VWS V14.01,2013-03-26 17:23:00,
2013-03-26 13:28:00,46.8,26.0,30.05,North,360,1.3,9.1,44,0.00,,OVC110,0.00,VWS V14.01,2013-03-26 17:28:00,
2013-03-26 13:33:00,46.7,26.5,30.05,WNW,299,2.6,10.4,45,0.00,,OVC110,0.00,VWS V14.01,2013-03-26 17:33:00,
2013-03-26 13:38:00,46.4,25.7,30.05,West,281,9.1,9.1,44,0.00,,OVC110,0.00,VWS V14.01,2013-03-26 17:38:00,
2013-03-26 13:43:00,47.0,26.2,30.05,NW,319,10.4,14.3,44,0.00,,OVC110,0.00,VWS V14.01,2013-03-26 17:43:00,
2013-03-26 13:48:00,46.9,26.7,30.05,NE,54,7.8,7.8,45,0.00,,OVC110,0.00,VWS V14.01,2013-03-26 17:48:00,
2013-03-26 13:53:00,46.9,25.6,30.05,WNW,283,1.3,14.3,43,0.00,,OVC110,0.00,VWS V14.01,2013-03-26 17:53:00,
2013-03-26 13:58:00,46.7,26.5,30.05,West,275,1.3,6.5,45,0.00,,OVC110,0.00,VWS V14.01,2013-03-26 17:58:00,
2013-03-26 14:03:00,47.5,26.7,30.05,WSW,238,5.2,7.8,44,0.00,,SCT060,0.00,VWS V14.01,2013-03-26 18:03:00,
2013-03-26 14:08:00,46.4,25.1,30.05,East,85,3.9,15.6,43,0.00,,SCT060,0.00,VWS V14.01,2013-03-26 18:08:00,
2013-03-26 14:13:00,46.7,26.5,30.05,SW,214,2.6,11.7,45,0.00,,SCT060,0.00,VWS V14.01,2013-03-26 18:13:00,
2013-03-26 14:18:00,47.7,26.3,30.05,SE,134,3.9,14.3,43,0.00,,SCT060,0.00,VWS V14.01,2013-03-26 18:18:00,
2013-03-26 14:24:00,46.5,25.2,30.05,West,275,0.0,13.0,43,0.00,,SCT060,0.00,VWS V14.01,2013-03-26 18:24:00,
2013-03-26 14:29:00,46.8,26.6,30.05,North,5,2.6,10.4,45,0.00,,SCT060,0.00,VWS V14.01,2013-03-26 18:29:00,
2013-03-26 14:34:00,47.0,26.2,30.05,East,99,5.2,5.2,44,0.00,,SCT060,0.00,VWS V14.01,2013-03-26 18:34:00,
2013-03-26 14:39:00,46.9,26.7,30.05,NW,309,9.1,9.1,45,0.00,,SCT060,0.00,VWS V14.01,2013-03-26 18:39:00,
2013-03-26 14:44:00,46.6,25.9,30.05,WNW,282,3.9,9.1,44,0.00,,SCT060,0.00,VWS V14.01,2013-03-26 18:44:00,
2013-03-26 14:49:00,46.3,26.1,30.05,NNW,340,3.9,6.5,45,0.00,,SCT060,0.00,VWS V14.01,2013-03-26 18:49:00,
2013-03-26 14:54:00,46.4,26.2,30.05,NW,309,6.5,13.0,45,0.00,,SCT060,0.00,VWS V14.01,2013-03-26 18:54:00,
2013-03-26 14:59:00,46.4,26.8,30.05,West,275,2.6,2.6,46,0.00,,SCT060,0.00,VWS V14.01,2013-03-26 18:59:00,
2013-03-26 15:05:00,46.4,26.2,30.05,SSE,148,2.6,10.4,45,0.00,,BKN060,0.00,VWS V14.01,2013-03-26 19:05:00,
2013-03-26 15:10:00,47.5,27.2,30.05,ENE,72,3.9,11.7,45,0.00,,BKN060,0.00,VWS V14.01,2013-03-26 19:10:00,
2013-03-26 15:15:00,47.8,27.0,30.05,SW,229,2.6,10.4,44,0.00,,BKN060,0.00,VWS V14.01,2013-03-26 19:15:00,
2013-03-26 15:20:00,47.8,27.0,30.05,West,279,3.9,14.3,44,0.00,,BKN060,0.00,VWS V14.01,2013-03-26 19:20:00,
2013-03-26 15:25:00,48.2,28.4,30.05,SSW,207,5.2,11.7,46,0.00,,BKN060,0.00,VWS V14.01,2013-03-26 19:25:00,
2013-03-26 15:30:00,48.6,26.6,30.05,East,79,6.5,11.7,42,0.00,,BKN060,0.00,VWS V14.01,2013-03-26 19:30:00,
2013-03-26 15:35:00,48.7,26.1,30.05,West,267,2.6,7.8,41,0.00,,BKN060,0.00,VWS V14.01,2013-03-26 19:35:00,
2013-03-26 15:41:00,48.2,26.8,30.05,WSW,246,1.3,9.1,43,0.00,,BKN060,0.00,VWS V14.01,2013-03-26 19:41:00,
2013-03-26 15:46:00,48.5,26.5,30.05,ESE,122,1.3,14.3,42,0.00,,BKN060,0.00,VWS V14.01,2013-03-26 19:46:00,
2013-03-26 15:51:00,48.3,28.0,30.05,WSW,242,1.3,6.5,45,0.00,,BKN060,0.00,VWS V14.01,2013-03-26 19:51:00,
2013-03-26 15:56:00,48.8,26.7,30.05,NNW,334,10.4,13.0,42,0.00,,BKN060,0.00,VWS V14.01,2013-03-26 19:56:00,
2013-03-26 16:01:00,49.2,27.1,30.05,NW,311,2.6,15.6,42,0.00,,BKN060,0.00,VWS V14.01,2013-03-26 20:01:00,
2013-03-26 16:06:00,49.5,25.6,30.05,SSW,196,1.3,13.0,39,0.00,,BKN060,0.00,VWS V14.01,2013-03-26 20:06:00,
2013-03-26 16:11:00,49.1,25.2,30.05,North,350,5.2,10.4,39,0.00,,BKN060,0.00,VWS V14.01,2013-03-26 20:11:00,
2013-03-26 16:16:00,48.6,24.8,30.05,NNW,333,0.0,11.7,39,0.00,,BKN060,0.00,VWS V14.01,2013-03-26 20:16:00,
2013-03-26 16:21:00,49.2,25.9,30.05,NW,321,2.6,14.3,40,0.00,,BKN060,0.00,VWS V14.01,2013-03-26 20:21:00,
2013-03-26 16:26:00,48.5,26.5,30.05,ENE,66,5.2,13.0,42,0.00,,BKN060,0.00,VWS V14.01,2013-03-26 20:26:00,
2013-03-26 16:32:00,48.1,26.7,30.05,ENE,70,2.6,11.7,43,0.00,,BKN060,0.00,VWS V14.01,2013-03-26 20:32:00,
2013-03-26 16:37:00,47.5,27.2,30.05,SSE,151,1.3,10.4,45,0.00,,BKN060,0.00,VWS V14.01,2013-03-26 20:37:00,
2013-03-26 16:42:00,46.9,26.1,30.05,NNW,345,2.6,7.8,44,0.00,,BKN060,0.00,VWS V14.01,2013-03-26 20:42:00,
2013-03-26 16:47:00,47.2,27.5,30.05,NE,36,5.2,7.8,46,0.00,,BKN060,0.00,VWS V14.01,2013-03-26 20:47:00,
2013-03-26 16:52:00,48.0,27.1,30.06,SSE,153,3.9,6.5,44,0.00,,BKN060,0.00,VWS V14.01,2013-03-26 20:52:00,
2013-03-26 16:57:00,48.4,27.5,30.06,East,101,2.6,9.1,44,0.00,,BKN060,0.00,VWS V14.01,2013-03-26 20:57:00,
2013-03-26 17:02:00,48.6,27.1,30.06,NE,42,3.9,11.7,43,0.00,,BKN060,0.00,VWS V14.01,2013-03-26 21:02:00,
2013-03-26 17:07:00,48.7,27.8,30.06,NNW,347,3.9,6.5,44,0.00,,BKN060,0.00,VWS V14.01,2013-03-26 21:07:00,
2013-03-26 17:12:00,49.0,27.5,30.06,NNE,33,2.6,5.2,43,0.00,,BKN060,0.00,VWS V14.01,2013-03-26 21:12:00,
2013-03-26 17:17:00,48.8,27.3,30.07,SW,228,3.9,6.5,43,0.00,,BKN060,0.00,VWS V14.01,2013-03-26 21:17:00,
2013-03-26 17:22:00,48.6,28.2,30.07,NNE,22,6.5,13.0,45,0.00,,BKN060,0.00,VWS V14.01,2013-03-26 21:22:00,
2013-03-26 17:27:00,48.3,27.4,30.07,NNW,346,2.6,10.4,44,0.00,,BKN060,0.00,VWS V14.01,2013-03-26 21:27:00,
2013-03-26 17:32:00,48.6,27.7,30.07,NE,39,3.9,9.1,44,0.00,,BKN060,0.00,VWS V14.01,2013-03-26 21:32:00,
2013-03-26 17:37:00,48.5,28.7,30.07,ENE,74,2.6,13.0,46,0.00,,BKN060,0.00,VWS V14.01,2013-03-26 21:37:00,
2013-03-26 17:42:00,48.0,27.7,30.07,NNW,342,6.5,10.4,45,0.00,,BKN060,0.00,VWS V14.01,2013-03-26 21:42:00,
2013-03-26 17:48:00,47.1,27.4,30.07,NNE,13,5.2,11.7,46,0.00,,BKN060,0.00,VWS V14.01,2013-03-26 21:48:00,
2013-03-26 17:53:00,46.9,28.2,30.07,East,90,7.8,7.8,48,0.00,,BKN060,0.00,VWS V14.01,2013-03-26 21:53:00,
2013-03-26 17:58:00,46.8,27.6,30.08,ENE,75,1.3,6.5,47,0.00,,BKN060,0.00,VWS V14.01,2013-03-26 21:58:00,
2013-03-26 18:03:00,46.3,27.2,30.08,ENE,67,6.5,13.0,47,0.00,,CLR,0.00,VWS V14.01,2013-03-26 22:03:00,
2013-03-26 18:08:00,45.5,26.5,30.08,East,101,1.3,9.1,47,0.00,,CLR,0.00,VWS V14.01,2013-03-26 22:08:00,
2013-03-26 18:13:00,45.1,27.1,30.08,NNE,13,3.9,9.1,49,0.00,,CLR,0.00,VWS V14.01,2013-03-26 22:13:00,
2013-03-26 18:18:00,44.6,27.1,30.08,East,86,11.7,15.6,50,0.00,,CLR,0.00,VWS V14.01,2013-03-26 22:18:00,
2013-03-26 18:23:00,44.2,26.8,30.09,East,96,2.6,10.4,50,0.00,,CLR,0.00,VWS V14.01,2013-03-26 22:23:00,
2013-03-26 18:29:00,43.9,27.0,30.09,NE,37,5.2,13.0,51,0.00,,CLR,0.00,VWS V14.01,2013-03-26 22:29:00,
2013-03-26 18:34:00,43.7,26.8,30.09,NNW,344,1.3,7.8,51,0.00,,CLR,0.00,VWS V14.01,2013-03-26 22:34:00,
2013-03-26 18:39:00,43.6,27.1,30.09,NNW,342,0.0,6.5,52,0.00,,CLR,0.00,VWS V14.01,2013-03-26 22:39:00,
2013-03-26 18:44:00,43.4,26.5,30.10,NNW,340,3.9,10.4,51,0.00,,CLR,0.00,VWS V14.01,2013-03-26 22:44:00,
2013-03-26 18:49:00,43.3,26.9,30.10,NNE,13,5.2,6.5,52,0.00,,CLR,0.00,VWS V14.01,2013-03-26 22:49:00,
2013-03-26 18:54:00,43.1,26.2,30.10,West,262,1.3,5.2,51,0.00,,CLR,0.00,VWS V14.01,2013-03-26 22:54:00,
2013-03-26 18:59:00,43.0,26.1,30.10,NNE,27,3.9,5.2,51,0.00,,CLR,0.00,VWS V14.01,2013-03-26 22:59:00,
2013-03-26 19:04:00,42.9,27.0,30.10,NNW,338,0.0,6.5,53,0.00,,CLR,0.00,VWS V14.01,2013-03-26 23:04:00,
2013-03-26 19:09:00,42.8,26.4,30.11,NW,325,2.6,5.2,52,0.00,,CLR,0.00,VWS V14.01,2013-03-26 23:09:00,
2013-03-26 19:14:00,42.6,26.2,30.11,NNE,16,2.6,9.1,52,0.00,,CLR,0.00,VWS V14.01,2013-03-26 23:14:00,
2013-03-26 19:20:00,42.3,26.4,30.11,WNW,296,3.9,9.1,53,0.00,,CLR,0.00,VWS V14.01,2013-03-26 23:20:00,
2013-03-26 19:25:00,42.1,26.2,30.12,NNE,16,2.6,2.6,53,0.00,,CLR,0.00,VWS V14.01,2013-03-26 23:25:00,
2013-03-26 19:30:00,41.8,26.4,30.11,NNE,14,9.1,11.7,54,0.00,,CLR,0.00,VWS V14.01,2013-03-26 23:30:00,
2013-03-26 19:35:00,41.6,25.8,30.12,WNW,296,5.2,13.0,53,0.00,,CLR,0.00,VWS V14.01,2013-03-26 23:35:00,
2013-03-26 19:40:00,41.5,26.1,30.12,NW,311,10.4,10.4,54,0.00,,CLR,0.00,VWS V14.01,2013-03-26 23:40:00,
2013-03-26 19:45:00,41.2,26.7,30.12,North,360,5.2,7.8,56,0.00,,CLR,0.00,VWS V14.01,2013-03-26 23:45:00,
2013-03-26 19:50:00,40.9,26.9,30.13,ENE,65,3.9,3.9,57,0.00,,CLR,0.00,VWS V14.01,2013-03-26 23:50:00,
2013-03-26 19:55:00,40.6,26.6,30.13,ENE,69,3.9,11.7,57,0.00,,CLR,0.00,VWS V14.01,2013-03-26 23:55:00,
2013-03-26 20:00:00,40.3,26.7,30.13,NE,55,2.6,2.6,58,0.00,,CLR,0.00,VWS V14.01,2013-03-27 00:00:00,
2013-03-26 20:05:00,40.1,26.9,30.14,East,88,5.2,10.4,59,0.00,,CLR,0.00,VWS V14.01,2013-03-27 00:05:00,
2013-03-26 20:10:00,39.9,26.8,30.14,ESE,121,2.6,3.9,59,0.00,,CLR,0.00,VWS V14.01,2013-03-27 00:10:00,
2013-03-26 20:15:00,39.8,27.1,30.14,NNW,327,1.3,3.9,60,0.00,,CLR,0.00,VWS V14.01,2013-03-27 00:15:00,
2013-03-26 20:20:00,39.7,27.0,30.14,East,92,1.3,7.8,60,0.00,,CLR,0.00,VWS V14.01,2013-03-27 00:20:00,
2013-03-26 20:26:00,39.6,26.9,30.15,NNE,21,3.9,3.9,60,0.00,,CLR,0.00,VWS V14.01,2013-03-27 00:26:00,
2013-03-26 20:31:00,39.5,27.2,30.15,ENE,58,0.0,3.9,61,0.00,,CLR,0.00,VWS V14.01,2013-03-27 00:31:00,
2013-03-26 20:36:00,39.3,27.0,30.15,ESE,122,0.0,3.9,61,0.00,,CLR,0.00,VWS V14.01,2013-03-27 00:36:00,
2013-03-26 20:41:00,39.3,26.6,30.15,NNE,21,1.3,6.5,60,0.00,,CLR,0.00,VWS V14.01,2013-03-27 00:41:00,
2013-03-26 20:47:00,39.3,26.2,30.16,ENE,73,3.9,5.2,59,0.00,,CLR,0.00,VWS V14.01,2013-03-27 00:47:00,
2013-03-26 20:52:00,39.2,26.1,30.16,SSE,157,2.6,3.9,59,0.00,,CLR,0.00,VWS V14.01,2013-03-27 00:52:00,
2013-03-26 20:57:00,39.1,26.4,30.16,North,5,7.8,7.8,60,0.00,,CLR,0.00,VWS V14.01,2013-03-27 00:57:00,
2013-03-26 21:02:00,39.0,26.3,30.16,ENE,72,0.0,5.2,60,0.00,,BKN060,0.00,VWS V14.01,2013-03-27 01:02:00,
2013-03-26 21:07:00,38.9,26.6,30.16,NNE,26,0.0,3.9,61,0.00,,BKN060,0.00,VWS V14.01,2013-03-27 01:07:00,
2013-03-26 21:12:00,38.8,26.5,30.17,WNW,302,2.6,5.2,61,0.00,,BKN060,0.00,VWS V14.01,2013-03-27 01:12:00,
2013-03-26 21:17:00,38.7,26.8,30.17,East,91,1.3,3.9,62,0.00,,BKN060,0.00,VWS V14.01,2013-03-27 01:17:00,
2013-03-26 21:23:00,38.7,26.4,30.17,ENE,63,1.3,9.1,61,0.00,,BKN060,0.00,VWS V14.01,2013-03-27 01:23:00,
2013-03-26 21:28:00,38.8,26.5,30.17,NE,47,1.3,5.2,61,0.00,,BKN060,0.00,VWS V14.01,2013-03-27 01:28:00,
2013-03-26 21:33:00,38.8,26.5,30.17,NE,42,0.0,2.6,61,0.00,,BKN060,0.00,VWS V14.01,2013-03-27 01:33:00,
2013-03-26 21:38:00,38.7,26.4,30.17,NE,53,3.9,6.5,61,0.00,,BKN060,0.00,VWS V14.01,2013-03-27 01:38:00,
2013-03-26 21:43:00,38.6,25.9,30.18,NE,36,0.0,1.3,60,0.00,,BKN060,0.00,VWS V14.01,2013-03-27 01:43:00,
2013-03-26 21:48:00,38.4,25.3,30.18,ENE,67,2.6,6.5,59,0.00,,BKN060,0.00,VWS V14.01,2013-03-27 01:48:00,
2013-03-26 21:53:00,38.6,25.1,30.18,NE,44,1.3,3.9,58,0.00,,BKN060,0.00,VWS V14.01,2013-03-27 01:53:00,
2013-03-26 21:58:00,38.7,24.8,30.18,East,82,3.9,5.2,57,0.00,,BKN060,0.00,VWS V14.01,2013-03-27 01:58:00,
2013-03-26 22:03:00,38.7,24.8,30.19,ESE,115,2.6,3.9,57,0.00,,BKN055,0.00,VWS V14.01,2013-03-27 02:03:00,
2013-03-26 22:08:00,38.6,25.1,30.19,ENE,74,2.6,5.2,58,0.00,,BKN055,0.00,VWS V14.01,2013-03-27 02:08:00,
2013-03-26 22:13:00,38.4,25.7,30.19,ENE,74,1.3,3.9,60,0.00,,BKN055,0.00,VWS V14.01,2013-03-27 02:13:00,
2013-03-26 22:18:00,38.1,25.9,30.19,ENE,75,1.3,2.6,61,0.00,,BKN055,0.00,VWS V14.01,2013-03-27 02:18:00,
2013-03-26 22:23:00,37.8,26.0,30.19,East,95,3.9,5.2,62,0.00,,BKN055,0.00,VWS V14.01,2013-03-27 02:23:00,
2013-03-26 22:28:00,37.5,26.1,30.19,ENE,57,2.6,2.6,63,0.00,,BKN055,0.00,VWS V14.01,2013-03-27 02:28:00,
2013-03-26 22:34:00,37.4,26.4,30.19,East,80,1.3,2.6,64,0.00,,BKN055,0.00,VWS V14.01,2013-03-27 02:34:00,
2013-03-26 22:39:00,36.9,26.2,30.20,East,86,2.6,3.9,65,0.00,,BKN055,0.00,VWS V14.01,2013-03-27 02:39:00,
2013-03-26 22:44:00,36.5,26.2,30.20,East,86,0.0,1.3,66,0.00,,BKN055,0.00,VWS V14.01,2013-03-27 02:44:00,
2013-03-26 22:49:00,36.2,26.3,30.20,East,90,0.0,5.2,67,0.00,,BKN055,0.00,VWS V14.01,2013-03-27 02:49:00,
2013-03-26 22:54:00,36.2,26.3,30.20,NE,48,0.0,3.9,67,0.00,,BKN055,0.00,VWS V14.01,2013-03-27 02:54:00,
2013-03-26 22:59:00,36.3,26.4,30.20,NNW,334,0.0,2.6,67,0.00,,BKN055,0.00,VWS V14.01,2013-03-27 02:59:00,
2013-03-26 23:04:00,36.3,26.4,30.20,WNW,300,3.9,3.9,67,0.00,,CLR,0.00,VWS V14.01,2013-03-27 03:04:00,
2013-03-26 23:09:00,36.2,26.3,30.20,West,266,1.3,2.6,67,0.00,,CLR,0.00,VWS V14.01,2013-03-27 03:09:00,
2013-03-26 23:14:00,36.1,26.2,30.20,NNW,329,1.3,3.9,67,0.00,,CLR,0.00,VWS V14.01,2013-03-27 03:14:00,
2013-03-26 23:19:00,36.0,26.5,30.20,NNW,338,0.0,1.3,68,0.00,,CLR,0.00,VWS V14.01,2013-03-27 03:19:00,
2013-03-26 23:24:00,35.9,26.4,30.20,NNW,332,1.3,3.9,68,0.00,,CLR,0.00,VWS V14.01,2013-03-27 03:24:00,
2013-03-26 23:29:00,35.7,26.5,30.20,NNE,22,0.0,2.6,69,0.00,,CLR,0.00,VWS V14.01,2013-03-27 03:29:00,
2013-03-26 23:35:00,35.6,26.5,30.20,WNW,285,0.0,2.6,69,0.00,,CLR,0.00,VWS V14.01,2013-03-27 03:35:00,
2013-03-26 23:40:00,35.6,26.5,30.20,ENE,69,0.0,1.3,69,0.00,,CLR,0.00,VWS V14.01,2013-03-27 03:40:00,
2013-03-26 23:45:00,35.3,26.5,30.20,NE,44,0.0,3.9,70,0.00,,CLR,0.00,VWS V14.01,2013-03-27 03:45:00,
2013-03-26 23:50:00,35.1,26.7,30.20,NE,44,0.0,2.6,71,0.00,,CLR,0.00,VWS V14.01,2013-03-27 03:50:00,
2013-03-26 23:55:00,35.0,26.6,30.20,NE,44,0.0,3.9,71,0.00,,CLR,0.00,VWS V14.01,2013-03-27 03:55:00,